User: anonymous   Login
Location: Newark
(51.3318°N, 0.0053°E)
Time: 14:17:54
(UTC+00:00)
Language:

METEOR M2 - Orbit

View from above orbital plane
View from above orbital plane
View from above satellite
View from above satellite

Ground track
Ground track

The orbit data is extracted from the following two-line orbital elements,

1 40069U 14037A   22176.21111040  .00000004  00000-0  20891-4 0  9990
2 40069  98.4304 193.6612 0004737 309.8044  50.2720 14.20711533412961
Epoch (UTC): 25 June 2022 05:03:59
Eccentricity: 0.0004737
inclination: 98.4304°
perigee height: 819 km
apogee height: 826 km
right ascension of ascending node: 193.6612°
argument of perigee: 309.8044°
revolutions per day: 14.20711533
mean anomaly at epoch: 50.2720°
orbit number at epoch: 41296

The dashed part of the orbit path shows where the satellite is in the earth's shadow,  

DLR